Volver al catálogo

CZ-6A DEB

ActivoSSO
NORAD 55554·DEBRIS·🇨🇳 China

Lanzado Nov 11, 2022 desde Taiyuan Satellite Launch Center

Loading…

Próximos Pases (próximas 24 horas)

TLE

ActualizadoSource: Space-Track

Época: Sep 12, 2026, 23:28 UTC

1 55554U 22151ZC  26255.97805314  .00001625  00000-0  83027-3 0  9999
2 55554  98.8228 250.9931 0058448  75.4572 285.3075 14.16126936197287

Sigue CZ-6A DEB en tiempo real con AllMySat

Download on the App Store